Terminal Aerodrome Forecast
Issued by NWS Charleston, WV

Current Version | Previous Version | Graphics & Text | Print | Product List | Glossary On
Versions: 1 2 3 4 5 6 7 8 9 10 11 12 13 14 15 16 17 18 19 20 21 22
000
FTUS41 KRLX 090309 AAA
TAFBKW
TAF AMD
KBKW 090309Z 0903/0924 30012G19KT P6SM OVC035
     FM090700 29009G16KT P6SM OVC035=

USA.gov is the U.S. government's official web portal to all federal, state and local government web resources and services.